Time,TemperatureF,DewpointF,PressureIn,WindDirection,WindDirectionDegrees,WindSpeedMPH,WindSpeedGustMPH,Humidity,HourlyPrecipIn,Conditions,Clouds,dailyrainin,SoftwareType,DateUTC
2013-04-12 00:00:00,75.8,71.7,29.87,SSW,203,3.0,5.0,87,0.00,,,0.00,Wunderground v.1.15,2013-04-12 04:00:00,
2013-04-12 00:01:00,75.8,71.7,29.87,South,181,4.0,5.0,87,0.00,,,0.00,Wunderground v.1.15,2013-04-12 04:01:00,
2013-04-12 00:02:00,75.8,71.3,29.87,SSE,147,7.0,7.0,86,0.00,,,0.00,Wunderground v.1.15,2013-04-12 04:02:00,
2013-04-12 00:06:00,75.8,71.3,29.87,SSE,156,0.0,11.0,86,0.00,,,0.00,Wunderground v.1.15,2013-04-12 04:06:00,
2013-04-12 00:12:00,75.8,71.7,29.87,SSE,158,4.0,5.0,87,0.00,,,0.00,Wunderground v.1.15,2013-04-12 04:12:00,
2013-04-12 00:18:00,75.8,71.7,29.87,South,169,10.0,10.0,87,0.00,,,0.00,Wunderground v.1.15,2013-04-12 04:18:00,
2013-04-12 00:24:00,75.8,71.7,29.87,South,169,3.0,4.0,87,0.00,,,0.00,Wunderground v.1.15,2013-04-12 04:24:00,
2013-04-12 00:30:00,75.8,71.3,29.87,South,171,8.0,8.0,86,0.00,,,0.00,Wunderground v.1.15,2013-04-12 04:30:00,
2013-04-12 00:35:00,75.8,71.3,29.87,SE,127,10.0,10.0,86,0.00,,,0.00,Wunderground v.1.15,2013-04-12 04:35:00,
2013-04-12 00:40:00,75.8,71.3,29.87,SSE,160,9.0,9.0,86,0.00,,,0.00,Wunderground v.1.15,2013-04-12 04:40:00,
2013-04-12 00:45:00,75.8,71.7,29.88,South,169,0.0,9.0,87,0.00,,,0.00,Wunderground v.1.15,2013-04-12 04:45:00,
2013-04-12 00:51:00,75.8,71.7,29.88,South,172,5.0,6.0,87,0.00,,,0.00,Wunderground v.1.15,2013-04-12 04:51:00,
2013-04-12 00:57:00,76.0,71.5,29.88,SSE,154,4.0,6.0,86,0.00,,,0.00,Wunderground v.1.15,2013-04-12 04:57:00,
2013-04-12 01:03:00,76.0,71.5,29.88,SSE,163,2.0,8.0,86,0.00,,,0.00,Wunderground v.1.15,2013-04-12 05:03:00,
2013-04-12 01:08:00,76.0,71.5,29.88,South,186,3.0,8.0,86,0.00,,,0.00,Wunderground v.1.15,2013-04-12 05:08:00,
2013-04-12 01:14:00,76.0,71.5,29.87,SW,214,0.0,12.0,86,0.00,,,0.00,Wunderground v.1.15,2013-04-12 05:14:00,
2013-04-12 01:20:00,76.0,71.5,29.87,SSW,200,4.0,12.0,86,0.00,,,0.00,Wunderground v.1.15,2013-04-12 05:20:00,
2013-04-12 01:26:00,76.0,71.8,29.87,South,170,0.0,9.0,87,0.00,,,0.00,Wunderground v.1.15,2013-04-12 05:26:00,
2013-04-12 01:32:00,76.0,71.8,29.88,SSE,158,6.0,6.0,87,0.00,,,0.00,Wunderground v.1.15,2013-04-12 05:32:00,
2013-04-12 01:38:00,76.0,71.8,29.88,SSW,192,1.0,6.0,87,0.00,,,0.00,Wunderground v.1.15,2013-04-12 05:38:00,
2013-04-12 01:44:00,76.0,71.8,29.88,SSE,166,3.0,3.0,87,0.00,,,0.00,Wunderground v.1.15,2013-04-12 05:44:00,
2013-04-12 01:50:00,76.0,71.8,29.88,South,172,3.0,5.0,87,0.00,,,0.00,Wunderground v.1.15,2013-04-12 05:50:00,
2013-04-12 01:55:00,75.8,71.7,29.88,SSE,159,0.0,2.0,87,0.00,,,0.00,Wunderground v.1.15,2013-04-12 05:55:00,
2013-04-12 02:00:00,75.8,71.7,29.88,SSE,165,3.0,3.0,87,0.00,,,0.00,Wunderground v.1.15,2013-04-12 06:00:00,
2013-04-12 02:06:00,75.8,71.7,29.88,South,175,0.0,4.0,87,0.00,,,0.00,Wunderground v.1.15,2013-04-12 06:06:00,
2013-04-12 02:11:00,75.8,71.7,29.88,South,175,0.0,1.0,87,0.00,,,0.00,Wunderground v.1.15,2013-04-12 06:11:00,
2013-04-12 02:16:00,75.8,71.7,29.88,SSW,192,0.0,1.0,87,0.00,,,0.00,Wunderground v.1.15,2013-04-12 06:16:00,
2013-04-12 02:21:00,75.6,71.5,29.88,SSE,164,2.0,7.0,87,0.00,,,0.00,Wunderground v.1.15,2013-04-12 06:21:00,
2013-04-12 02:26:00,75.6,71.5,29.88,SW,226,3.0,7.0,87,0.00,,,0.00,Wunderground v.1.15,2013-04-12 06:26:00,
2013-04-12 02:31:00,75.6,71.5,29.87,SSE,155,0.0,3.0,87,0.00,,,0.00,Wunderground v.1.15,2013-04-12 06:31:00,
2013-04-12 02:36:00,75.6,71.5,29.87,South,169,0.0,3.0,87,0.00,,,0.00,Wunderground v.1.15,2013-04-12 06:36:00,
2013-04-12 02:41:00,75.4,71.3,29.87,SSW,196,0.0,0.0,87,0.00,,,0.00,Wunderground v.1.15,2013-04-12 06:41:00,
2013-04-12 02:46:00,75.4,71.3,29.87,South,182,0.0,1.0,87,0.00,,,0.00,Wunderground v.1.15,2013-04-12 06:46:00,
2013-04-12 02:51:00,75.4,71.3,29.87,South,183,0.0,3.0,87,0.00,,,0.00,Wunderground v.1.15,2013-04-12 06:51:00,
2013-04-12 02:57:00,75.4,71.3,29.87,South,188,4.0,4.0,87,0.00,,,0.00,Wunderground v.1.15,2013-04-12 06:57:00,
2013-04-12 03:02:00,75.3,71.2,29.86,SSE,168,0.0,1.0,87,0.00,,,0.00,Wunderground v.1.15,2013-04-12 07:02:00,
2013-04-12 03:07:00,75.3,71.2,29.86,SSE,153,0.0,1.0,87,0.00,,,0.00,Wunderground v.1.15,2013-04-12 07:07:00,
2013-04-12 03:12:00,75.1,71.0,29.86,South,189,0.0,6.0,87,0.00,,,0.00,Wunderground v.1.15,2013-04-12 07:12:00,
2013-04-12 03:17:00,75.1,71.3,29.86,SSE,160,0.0,9.0,88,0.00,,,0.00,Wunderground v.1.15,2013-04-12 07:17:00,
2013-04-12 03:22:00,75.1,71.3,29.86,South,176,0.0,1.0,88,0.00,,,0.00,Wunderground v.1.15,2013-04-12 07:22:00,
2013-04-12 03:27:00,74.9,71.1,29.86,SSW,200,0.0,3.0,88,0.00,,,0.00,Wunderground v.1.15,2013-04-12 07:27:00,
2013-04-12 03:32:00,74.9,71.1,29.86,South,176,1.0,2.0,88,0.00,,,0.00,Wunderground v.1.15,2013-04-12 07:32:00,
2013-04-12 03:37:00,74.9,71.4,29.86,South,173,0.0,2.0,89,0.00,,,0.00,Wunderground v.1.15,2013-04-12 07:37:00,
2013-04-12 03:42:00,74.9,71.4,29.86,SSE,147,0.0,3.0,89,0.00,,,0.00,Wunderground v.1.15,2013-04-12 07:42:00,
2013-04-12 03:47:00,74.9,71.4,29.86,South,173,0.0,3.0,89,0.00,,,0.00,Wunderground v.1.15,2013-04-12 07:47:00,
2013-04-12 03:52:00,74.9,71.4,29.86,SSW,192,0.0,1.0,89,0.00,,,0.00,Wunderground v.1.15,2013-04-12 07:52:00,
2013-04-12 03:57:00,74.7,71.2,29.86,SSW,193,0.0,1.0,89,0.00,,,0.00,Wunderground v.1.15,2013-04-12 07:57:00,
2013-04-12 04:02:00,74.7,71.2,29.87,SSW,193,0.0,0.0,89,0.00,,,0.00,Wunderground v.1.15,2013-04-12 08:02:00,
2013-04-12 04:07:00,74.7,71.2,29.87,South,191,0.0,0.0,89,0.00,,,0.00,Wunderground v.1.15,2013-04-12 08:07:00,
2013-04-12 04:12:00,74.7,71.6,29.87,SSW,193,0.0,0.0,90,0.00,,,0.00,Wunderground v.1.15,2013-04-12 08:12:00,
2013-04-12 04:17:00,74.7,71.6,29.87,SSW,193,0.0,0.0,90,0.00,,,0.00,Wunderground v.1.15,2013-04-12 08:17:00,
2013-04-12 04:22:00,74.7,71.6,29.87,SSW,193,0.0,0.0,90,0.00,,,0.00,Wunderground v.1.15,2013-04-12 08:22:00,
2013-04-12 04:27:00,74.6,71.5,29.87,SSW,193,0.0,0.0,90,0.00,,,0.00,Wunderground v.1.15,2013-04-12 08:27:00,
2013-04-12 04:32:00,74.6,71.5,29.87,SSW,193,0.0,0.0,90,0.00,,,0.00,Wunderground v.1.15,2013-04-12 08:32:00,
2013-04-12 04:37:00,74.6,71.5,29.87,SSW,193,0.0,0.0,90,0.00,,,0.00,Wunderground v.1.15,2013-04-12 08:37:00,
2013-04-12 04:43:00,74.6,71.5,29.87,SSW,193,0.0,0.0,90,0.00,,,0.00,Wunderground v.1.15,2013-04-12 08:43:00,
2013-04-12 04:48:00,74.4,71.3,29.86,SSW,193,0.0,1.0,90,0.00,,,0.00,Wunderground v.1.15,2013-04-12 08:48:00,
2013-04-12 04:53:00,74.4,71.6,29.86,SSW,193,0.0,0.0,91,0.00,,,0.00,Wunderground v.1.15,2013-04-12 08:53:00,
2013-04-12 04:58:00,74.4,71.6,29.86,South,191,0.0,1.0,91,0.00,,,0.00,Wunderground v.1.15,2013-04-12 08:58:00,
2013-04-12 05:03:00,74.2,71.4,29.86,South,191,0.0,0.0,91,0.00,,,0.00,Wunderground v.1.15,2013-04-12 09:03:00,
2013-04-12 05:08:00,74.2,71.4,29.86,South,191,0.0,0.0,91,0.00,,,0.00,Wunderground v.1.15,2013-04-12 09:08:00,
2013-04-12 05:13:00,74.2,71.7,29.86,South,191,0.0,0.0,92,0.00,,,0.00,Wunderground v.1.15,2013-04-12 09:13:00,
2013-04-12 05:18:00,74.2,71.7,29.86,SSW,192,0.0,0.0,92,0.00,,,0.00,Wunderground v.1.15,2013-04-12 09:18:00,
2013-04-12 05:23:00,74.2,71.7,29.86,South,191,0.0,0.0,92,0.00,,,0.00,Wunderground v.1.15,2013-04-12 09:23:00,
2013-04-12 05:28:00,74.0,71.8,29.86,SSW,194,0.0,3.0,93,0.00,,,0.00,Wunderground v.1.15,2013-04-12 09:28:00,
2013-04-12 05:33:00,74.0,71.8,29.87,SSW,195,0.0,1.0,93,0.00,,,0.00,Wunderground v.1.15,2013-04-12 09:33:00,
2013-04-12 05:38:00,74.0,71.8,29.87,South,181,0.0,4.0,93,0.00,,,0.00,Wunderground v.1.15,2013-04-12 09:38:00,
2013-04-12 05:43:00,74.0,71.8,29.87,South,183,0.0,2.0,93,0.00,,,0.00,Wunderground v.1.15,2013-04-12 09:43:00,
2013-04-12 05:49:00,74.0,71.8,29.87,South,180,0.0,2.0,93,0.00,,,0.00,Wunderground v.1.15,2013-04-12 09:49:00,
2013-04-12 05:54:00,73.9,72.1,29.87,South,169,0.0,1.0,94,0.00,,,0.00,Wunderground v.1.15,2013-04-12 09:54:00,
2013-04-12 05:59:00,73.9,72.1,29.87,SSW,194,0.0,2.0,94,0.00,,,0.00,Wunderground v.1.15,2013-04-12 09:59:00,
2013-04-12 06:04:00,73.9,72.1,29.87,South,176,2.0,4.0,94,0.00,,,0.00,Wunderground v.1.15,2013-04-12 10:04:00,
2013-04-12 06:09:00,73.9,72.1,29.87,SSW,201,0.0,4.0,94,0.00,,,0.00,Wunderground v.1.15,2013-04-12 10:09:00,
2013-04-12 06:14:00,73.9,72.1,29.86,SSW,201,0.0,0.0,94,0.00,,,0.00,Wunderground v.1.15,2013-04-12 10:14:00,
2013-04-12 06:19:00,73.9,72.4,29.86,SSW,200,0.0,0.0,95,0.00,,,0.00,Wunderground v.1.15,2013-04-12 10:19:00,
2013-04-12 06:24:00,73.7,72.2,29.86,South,191,0.0,1.0,95,0.00,,,0.00,Wunderground v.1.15,2013-04-12 10:24:00,
2013-04-12 06:29:00,73.7,72.2,29.86,South,191,0.0,1.0,95,0.00,,,0.00,Wunderground v.1.15,2013-04-12 10:29:00,
2013-04-12 06:34:00,73.5,72.0,29.86,South,188,2.0,4.0,95,0.00,,,0.00,Wunderground v.1.15,2013-04-12 10:34:00,
2013-04-12 06:39:00,73.5,72.0,29.86,South,174,0.0,7.0,95,0.00,,,0.00,Wunderground v.1.15,2013-04-12 10:39:00,
2013-04-12 06:44:00,73.5,72.0,29.85,SSE,156,0.0,4.0,95,0.00,,,0.00,Wunderground v.1.15,2013-04-12 10:44:00,
2013-04-12 06:49:00,73.3,71.8,29.85,SSW,200,0.0,1.0,95,0.00,,,0.00,Wunderground v.1.15,2013-04-12 10:49:00,
2013-04-12 06:54:00,73.3,71.8,29.85,South,191,1.0,5.0,95,0.00,,,0.00,Wunderground v.1.15,2013-04-12 10:54:00,
2013-04-12 06:59:00,73.3,71.8,29.85,South,182,0.0,1.0,95,0.00,,,0.00,Wunderground v.1.15,2013-04-12 10:59:00,
2013-04-12 07:04:00,73.3,71.8,29.85,South,186,0.0,1.0,95,0.00,,,0.00,Wunderground v.1.15,2013-04-12 11:04:00,
2013-04-12 07:09:00,73.3,71.8,29.85,SSE,165,0.0,0.0,95,0.00,,,0.00,Wunderground v.1.15,2013-04-12 11:09:00,
2013-04-12 07:14:00,73.2,72.0,29.85,SSE,162,0.0,2.0,96,0.00,,,0.00,Wunderground v.1.15,2013-04-12 11:14:00,
2013-04-12 07:19:00,73.2,72.0,29.85,SSW,193,0.0,0.0,96,0.00,,,0.00,Wunderground v.1.15,2013-04-12 11:19:00,
2013-04-12 07:24:00,73.3,72.1,29.85,South,174,0.0,5.0,96,0.00,,,0.00,Wunderground v.1.15,2013-04-12 11:24:00,
2013-04-12 07:29:00,73.3,72.1,29.86,South,185,0.0,0.0,96,0.00,,,0.00,Wunderground v.1.15,2013-04-12 11:29:00,
2013-04-12 07:34:00,73.3,72.1,29.86,SSW,198,0.0,0.0,96,0.00,,,0.00,Wunderground v.1.15,2013-04-12 11:34:00,
2013-04-12 07:39:00,73.3,72.1,29.86,SSW,200,0.0,0.0,96,0.00,,,0.00,Wunderground v.1.15,2013-04-12 11:39:00,
2013-04-12 07:45:00,73.5,72.3,29.86,South,169,0.0,1.0,96,0.00,,,0.00,Wunderground v.1.15,2013-04-12 11:45:00,
2013-04-12 07:50:00,73.5,72.3,29.86,SSW,212,0.0,0.0,96,0.00,,,0.00,Wunderground v.1.15,2013-04-12 11:50:00,
2013-04-12 07:55:00,73.7,72.5,29.86,South,188,0.0,1.0,96,0.00,,,0.00,Wunderground v.1.15,2013-04-12 11:55:00,
2013-04-12 08:00:00,73.9,72.7,29.87,SSW,201,0.0,1.0,96,0.00,,,0.00,Wunderground v.1.15,2013-04-12 12:00:00,
2013-04-12 08:05:00,73.9,72.7,29.87,SSE,152,0.0,1.0,96,0.00,,,0.00,Wunderground v.1.15,2013-04-12 12:05:00,
2013-04-12 08:10:00,74.0,72.8,29.87,SSW,195,2.0,2.0,96,0.00,,,0.00,Wunderground v.1.15,2013-04-12 12:10:00,
2013-04-12 08:15:00,74.2,73.0,29.87,SSW,210,0.0,5.0,96,0.00,,,0.00,Wunderground v.1.15,2013-04-12 12:15:00,
2013-04-12 08:20:00,74.6,73.4,29.87,SW,236,0.0,4.0,96,0.00,,,0.00,Wunderground v.1.15,2013-04-12 12:20:00,
2013-04-12 08:26:00,74.7,73.5,29.87,SE,143,0.0,4.0,96,0.00,,,0.00,Wunderground v.1.15,2013-04-12 12:26:00,
2013-04-12 08:31:00,75.1,73.6,29.87,South,172,3.0,6.0,95,0.00,,,0.00,Wunderground v.1.15,2013-04-12 12:31:00,
2013-04-12 08:36:00,75.4,73.9,29.87,South,185,0.0,6.0,95,0.00,,,0.00,Wunderground v.1.15,2013-04-12 12:36:00,
2013-04-12 08:41:00,75.8,73.6,29.87,South,172,2.0,11.0,93,0.00,,,0.00,Wunderground v.1.15,2013-04-12 12:41:00,
2013-04-12 08:46:00,76.0,73.5,29.87,SSE,166,7.0,13.0,92,0.00,,,0.00,Wunderground v.1.15,2013-04-12 12:46:00,
2013-04-12 08:51:00,76.1,73.3,29.87,SSW,203,3.0,11.0,91,0.00,,,0.00,Wunderground v.1.15,2013-04-12 12:51:00,
2013-04-12 08:56:00,76.5,73.3,29.87,SSW,203,4.0,11.0,90,0.00,,,0.00,Wunderground v.1.15,2013-04-12 12:56:00,
2013-04-12 09:01:00,76.7,73.2,29.86,SSE,167,5.0,12.0,89,0.00,,,0.00,Wunderground v.1.15,2013-04-12 13:01:00,
2013-04-12 09:06:00,77.0,73.2,29.86,SSW,212,0.0,12.0,88,0.00,,,0.00,Wunderground v.1.15,2013-04-12 13:06:00,
2013-04-12 09:11:00,77.4,73.6,29.86,SSW,213,0.0,2.0,88,0.00,,,0.00,Wunderground v.1.15,2013-04-12 13:11:00,
2013-04-12 09:16:00,77.7,73.5,29.87,SE,141,0.0,10.0,87,0.00,,,0.00,Wunderground v.1.15,2013-04-12 13:16:00,
2013-04-12 09:21:00,77.9,73.4,29.87,SSW,205,3.0,19.0,86,0.00,,,0.00,Wunderground v.1.15,2013-04-12 13:21:00,
2013-04-12 09:26:00,78.1,73.2,29.87,SSE,163,6.0,19.0,85,0.00,,,0.00,Wunderground v.1.15,2013-04-12 13:26:00,
2013-04-12 09:31:00,78.3,73.1,29.86,SSE,162,5.0,9.0,84,0.00,,,0.00,Wunderground v.1.15,2013-04-12 13:31:00,
2013-04-12 09:36:00,78.6,73.4,29.86,SE,145,6.0,15.0,84,0.00,,,0.00,Wunderground v.1.15,2013-04-12 13:36:00,
2013-04-12 09:41:00,78.8,73.2,29.86,South,191,0.0,2.0,83,0.00,,,0.00,Wunderground v.1.15,2013-04-12 13:41:00,
2013-04-12 09:46:00,79.0,73.4,29.86,South,183,0.0,16.0,83,0.00,,,0.00,Wunderground v.1.15,2013-04-12 13:46:00,
2013-04-12 09:51:00,79.4,73.8,29.86,South,171,0.0,2.0,83,0.00,,,0.00,Wunderground v.1.15,2013-04-12 13:51:00,
2013-04-12 09:56:00,79.8,73.4,29.86,WSW,250,0.0,9.0,81,0.00,,,0.00,Wunderground v.1.15,2013-04-12 13:56:00,
2013-04-12 10:01:00,79.8,72.7,29.87,SW,216,0.0,11.0,79,0.00,,,0.00,Wunderground v.1.15,2013-04-12 14:01:00,
2013-04-12 10:06:00,79.8,72.7,29.87,South,190,4.0,12.0,79,0.00,,,0.00,Wunderground v.1.15,2013-04-12 14:06:00,
2013-04-12 10:12:00,79.9,73.2,29.87,South,190,0.0,3.0,80,0.00,,,0.00,Wunderground v.1.15,2013-04-12 14:12:00,
2013-04-12 10:17:00,80.5,73.8,29.87,SW,236,0.0,6.0,80,0.00,,,0.00,Wunderground v.1.15,2013-04-12 14:17:00,
2013-04-12 10:22:00,80.7,73.2,29.87,SSE,151,0.0,12.0,78,0.00,,,0.00,Wunderground v.1.15,2013-04-12 14:22:00,
2013-04-12 10:27:00,81.1,73.6,29.87,South,186,3.0,12.0,78,0.00,,,0.00,Wunderground v.1.15,2013-04-12 14:27:00,
2013-04-12 10:32:00,81.1,72.8,29.87,South,171,0.0,4.0,76,0.00,,,0.00,Wunderground v.1.15,2013-04-12 14:32:00,
2013-04-12 10:37:00,81.2,72.9,29.87,SSW,213,0.0,12.0,76,0.00,,,0.00,Wunderground v.1.15,2013-04-12 14:37:00,
2013-04-12 10:42:00,81.4,73.1,29.87,South,176,1.0,5.0,76,0.00,,,0.00,Wunderground v.1.15,2013-04-12 14:42:00,
2013-04-12 10:47:00,82.0,73.3,29.87,SSW,202,4.0,9.0,75,0.00,,,0.00,Wunderground v.1.15,2013-04-12 14:47:00,
2013-04-12 10:52:00,82.0,72.9,29.87,WSW,248,6.0,6.0,74,0.00,,,0.00,Wunderground v.1.15,2013-04-12 14:52:00,
2013-04-12 10:57:00,82.2,73.1,29.87,SSW,211,0.0,7.0,74,0.00,,,0.00,Wunderground v.1.15,2013-04-12 14:57:00,
2013-04-12 11:02:00,82.8,73.7,29.87,South,169,0.0,3.0,74,0.00,,,0.00,Wunderground v.1.15,2013-04-12 15:02:00,
2013-04-12 11:07:00,83.6,73.2,29.87,South,171,5.0,7.0,71,0.00,,,0.00,Wunderground v.1.15,2013-04-12 15:07:00,
2013-04-12 11:12:00,83.8,73.0,29.87,SW,225,0.0,12.0,70,0.00,,,0.00,Wunderground v.1.15,2013-04-12 15:12:00,
2013-04-12 11:17:00,84.5,73.6,29.87,SW,232,0.0,12.0,70,0.00,,,0.00,Wunderground v.1.15,2013-04-12 15:17:00,
2013-04-12 11:22:00,84.7,73.0,29.87,SW,223,0.0,17.0,68,0.00,,,0.00,Wunderground v.1.15,2013-04-12 15:22:00,
2013-04-12 11:28:00,85.1,72.9,29.87,SSW,202,6.0,17.0,67,0.00,,,0.00,Wunderground v.1.15,2013-04-12 15:28:00,
2013-04-12 11:33:00,85.5,72.8,29.87,SW,217,1.0,15.0,66,0.00,,,0.00,Wunderground v.1.15,2013-04-12 15:33:00,
2013-04-12 11:38:00,85.5,72.8,29.87,South,179,0.0,15.0,66,0.00,,,0.00,Wunderground v.1.15,2013-04-12 15:38:00,
2013-04-12 11:43:00,85.5,72.8,29.87,South,179,0.0,11.0,66,0.00,,,0.00,Wunderground v.1.15,2013-04-12 15:43:00,
2013-04-12 11:48:00,86.1,73.0,29.87,SE,136,3.0,11.0,65,0.00,,,0.00,Wunderground v.1.15,2013-04-12 15:48:00,
2013-04-12 11:53:00,86.5,72.9,29.87,SSW,212,6.0,9.0,64,0.00,,,0.00,Wunderground v.1.15,2013-04-12 15:53:00,
2013-04-12 11:58:00,86.7,71.2,29.87,South,179,4.0,9.0,60,0.00,,,0.00,Wunderground v.1.15,2013-04-12 15:58:00,
2013-04-12 12:02:00,86.5,71.0,29.86,South,189,3.0,7.0,60,0.00,,,0.00,Wunderground v.1.15,2013-04-12 16:02:00,
2013-04-12 12:08:00,87.2,70.6,29.86,South,184,7.0,11.0,58,0.00,,,0.00,Wunderground v.1.15,2013-04-12 16:08:00,
2013-04-12 12:13:00,87.6,72.0,29.86,South,184,0.0,11.0,60,0.00,,,0.00,Wunderground v.1.15,2013-04-12 16:13:00,
2013-04-12 12:18:00,87.8,72.2,29.86,SSW,200,0.0,11.0,60,0.00,,,0.00,Wunderground v.1.15,2013-04-12 16:18:00,
2013-04-12 12:23:00,88.0,71.4,29.86,SW,227,0.0,10.0,58,0.00,,,0.00,Wunderground v.1.15,2013-04-12 16:23:00,
2013-04-12 12:28:00,87.8,70.7,29.86,SSW,194,4.0,11.0,57,0.00,,,0.00,Wunderground v.1.15,2013-04-12 16:28:00,
2013-04-12 12:33:00,87.8,70.7,29.85,South,179,1.0,5.0,57,0.00,,,0.00,Wunderground v.1.15,2013-04-12 16:33:00,
2013-04-12 12:38:00,88.0,70.9,29.85,WSW,245,1.0,11.0,57,0.00,,,0.00,Wunderground v.1.15,2013-04-12 16:38:00,
2013-04-12 12:43:00,88.4,71.2,29.85,SW,224,5.0,11.0,57,0.00,,,0.00,Wunderground v.1.15,2013-04-12 16:43:00,
2013-04-12 12:48:00,89.0,70.2,29.86,South,185,0.0,11.0,54,0.00,,,0.00,Wunderground v.1.15,2013-04-12 16:48:00,
2013-04-12 12:53:00,89.3,69.9,29.86,SSW,205,0.0,12.0,53,0.00,,,0.00,Wunderground v.1.15,2013-04-12 16:53:00,
2013-04-12 12:58:00,89.0,69.1,29.86,SSW,200,5.0,12.0,52,0.00,,,0.00,Wunderground v.1.15,2013-04-12 16:58:00,
2013-04-12 13:03:00,89.3,69.9,29.85,SW,231,6.0,9.0,53,0.00,,,0.00,Wunderground v.1.15,2013-04-12 17:03:00,
2013-04-12 13:08:00,90.1,70.1,29.85,WSW,244,0.0,11.0,52,0.00,,,0.00,Wunderground v.1.15,2013-04-12 17:08:00,
2013-04-12 13:13:00,90.7,68.9,29.85,SW,222,4.0,12.0,49,0.00,,,0.00,Wunderground v.1.15,2013-04-12 17:13:00,
2013-04-12 13:18:00,91.0,69.8,29.84,WSW,250,0.0,15.0,50,0.00,,,0.00,Wunderground v.1.15,2013-04-12 17:18:00,
2013-04-12 13:23:00,91.4,69.0,29.84,SW,214,0.0,13.0,48,0.00,,,0.00,Wunderground v.1.15,2013-04-12 17:23:00,
2013-04-12 13:28:00,91.6,68.5,29.84,WSW,240,0.0,13.0,47,0.00,,,0.00,Wunderground v.1.15,2013-04-12 17:28:00,
2013-04-12 13:33:00,91.6,69.1,29.85,WSW,245,6.0,12.0,48,0.00,,,0.00,Wunderground v.1.15,2013-04-12 17:33:00,
2013-04-12 13:38:00,91.0,68.6,29.85,SW,222,0.0,19.0,48,0.00,,,0.00,Wunderground v.1.15,2013-04-12 17:38:00,
2013-04-12 13:43:00,90.5,69.3,29.85,SSW,198,0.0,12.0,50,0.00,,,0.00,Wunderground v.1.15,2013-04-12 17:43:00,
2013-04-12 13:48:00,90.1,70.1,29.84,South,180,0.0,22.0,52,0.00,,,0.00,Wunderground v.1.15,2013-04-12 17:48:00,
2013-04-12 13:54:00,89.5,70.1,29.84,SSE,157,0.0,6.0,53,0.00,,,0.00,Wunderground v.1.15,2013-04-12 17:54:00,
2013-04-12 13:59:00,89.0,70.2,29.84,South,181,2.0,12.0,54,0.00,,,0.00,Wunderground v.1.15,2013-04-12 17:59:00,
2013-04-12 14:04:00,89.0,70.7,29.84,WSW,251,7.0,9.0,55,0.00,,,0.00,Wunderground v.1.15,2013-04-12 18:04:00,
2013-04-12 14:09:00,89.5,70.1,29.84,SSE,161,10.0,10.0,53,0.00,,,0.00,Wunderground v.1.15,2013-04-12 18:09:00,
2013-04-12 14:14:00,89.3,70.5,29.83,SW,233,0.0,9.0,54,0.00,,,0.00,Wunderground v.1.15,2013-04-12 18:14:00,
2013-04-12 14:19:00,89.0,70.2,29.83,SSE,151,1.0,9.0,54,0.00,,,0.00,Wunderground v.1.15,2013-04-12 18:19:00,
2013-04-12 14:24:00,89.3,71.0,29.83,South,186,4.0,4.0,55,0.00,,,0.00,Wunderground v.1.15,2013-04-12 18:24:00,
2013-04-12 14:29:00,89.7,70.8,29.82,SSW,198,2.0,5.0,54,0.00,,,0.00,Wunderground v.1.15,2013-04-12 18:29:00,
2013-04-12 15:26:00,92.7,68.9,29.80,SW,215,4.0,9.0,46,0.00,,,0.00,Wunderground v.1.15,2013-04-12 19:26:00,
2013-04-12 15:31:00,92.5,68.1,29.79,SW,221,2.0,4.0,45,0.00,,,0.00,Wunderground v.1.15,2013-04-12 19:31:00,
2013-04-12 15:36:00,92.3,68.5,29.79,WSW,239,3.0,9.0,46,0.00,,,0.00,Wunderground v.1.15,2013-04-12 19:36:00,
2013-04-12 15:41:00,92.1,69.0,29.79,WSW,242,0.0,5.0,47,0.00,,,0.00,Wunderground v.1.15,2013-04-12 19:41:00,
2013-04-12 15:46:00,91.6,68.5,29.78,WSW,245,0.0,9.0,47,0.00,,,0.00,Wunderground v.1.15,2013-04-12 19:46:00,
2013-04-12 15:51:00,91.6,69.7,29.78,WSW,241,0.0,7.0,49,0.00,,,0.00,Wunderground v.1.15,2013-04-12 19:51:00,
2013-04-12 15:57:00,91.6,69.1,29.78,WSW,242,6.0,7.0,48,0.00,,,0.00,Wunderground v.1.15,2013-04-12 19:57:00,
2013-04-12 16:02:00,91.4,69.6,29.79,South,183,1.0,6.0,49,0.00,,,0.00,Wunderground v.1.15,2013-04-12 20:02:00,
2013-04-12 16:07:00,91.4,69.0,29.79,SW,234,2.0,6.0,48,0.00,,,0.00,Wunderground v.1.15,2013-04-12 20:07:00,
2013-04-12 16:12:00,91.4,69.0,29.79,WSW,237,3.0,9.0,48,0.00,,,0.00,Wunderground v.1.15,2013-04-12 20:12:00,
2013-04-12 16:17:00,91.6,68.5,29.79,WSW,241,3.0,9.0,47,0.00,,,0.00,Wunderground v.1.15,2013-04-12 20:17:00,
2013-04-12 16:22:00,92.1,69.6,29.79,SW,225,0.0,6.0,48,0.00,,,0.00,Wunderground v.1.15,2013-04-12 20:22:00,
2013-04-12 16:27:00,92.3,69.2,29.79,SW,233,4.0,9.0,47,0.00,,,0.00,Wunderground v.1.15,2013-04-12 20:27:00,
2013-04-12 16:32:00,92.5,68.7,29.79,WSW,245,3.0,11.0,46,0.00,,,0.00,Wunderground v.1.15,2013-04-12 20:32:00,
2013-04-12 16:37:00,92.3,68.5,29.79,WNW,289,0.0,11.0,46,0.00,,,0.00,Wunderground v.1.15,2013-04-12 20:37:00,
2013-04-12 16:42:00,92.1,69.0,29.79,West,262,6.0,6.0,47,0.00,,,0.00,Wunderground v.1.15,2013-04-12 20:42:00,
2013-04-12 16:47:00,91.8,68.7,29.79,WSW,244,3.0,10.0,47,0.00,,,0.00,Wunderground v.1.15,2013-04-12 20:47:00,
2013-04-12 16:52:00,91.4,68.3,29.79,WSW,243,4.0,11.0,47,0.00,,,0.00,Wunderground v.1.15,2013-04-12 20:52:00,
2013-04-12 16:57:00,91.0,68.6,29.79,SW,231,0.0,11.0,48,0.00,,,0.00,Wunderground v.1.15,2013-04-12 20:57:00,
2013-04-12 17:02:00,91.2,68.8,29.79,SW,229,0.0,3.0,48,0.00,,,0.00,Wunderground v.1.15,2013-04-12 21:02:00,
2013-04-12 17:07:00,91.4,69.0,29.79,South,173,0.0,9.0,48,0.00,,,0.00,Wunderground v.1.15,2013-04-12 21:07:00,
2013-04-12 17:12:00,91.6,67.3,29.79,SW,222,4.0,9.0,45,0.00,,,0.00,Wunderground v.1.15,2013-04-12 21:12:00,
2013-04-12 17:17:00,92.3,67.9,29.79,WSW,249,2.0,11.0,45,0.00,,,0.00,Wunderground v.1.15,2013-04-12 21:17:00,
2013-04-12 17:22:00,92.3,67.2,29.79,SW,229,5.0,10.0,44,0.00,,,0.00,Wunderground v.1.15,2013-04-12 21:22:00,
2013-04-12 17:27:00,92.5,68.7,29.79,SW,214,5.0,10.0,46,0.00,,,0.00,Wunderground v.1.15,2013-04-12 21:27:00,
2013-04-12 17:32:00,92.7,68.2,29.79,WSW,252,8.0,8.0,45,0.00,,,0.00,Wunderground v.1.15,2013-04-12 21:32:00,
2013-04-12 17:37:00,92.5,67.4,29.79,South,189,2.0,9.0,44,0.00,,,0.00,Wunderground v.1.15,2013-04-12 21:37:00,
2013-04-12 17:42:00,92.1,67.7,29.79,SW,229,1.0,10.0,45,0.00,,,0.00,Wunderground v.1.15,2013-04-12 21:42:00,
2013-04-12 17:47:00,92.1,68.3,29.78,WSW,251,6.0,10.0,46,0.00,,,0.00,Wunderground v.1.15,2013-04-12 21:47:00,
2013-04-12 17:52:00,92.3,68.5,29.78,West,259,3.0,6.0,46,0.00,,,0.00,Wunderground v.1.15,2013-04-12 21:52:00,
2013-04-12 17:57:00,92.3,67.9,29.78,SW,233,2.0,9.0,45,0.00,,,0.00,Wunderground v.1.15,2013-04-12 21:57:00,
2013-04-12 18:02:00,91.6,67.9,29.78,WSW,251,6.0,11.0,46,0.00,,,0.00,Wunderground v.1.15,2013-04-12 22:02:00,
2013-04-12 18:07:00,91.2,66.9,29.78,SW,232,6.0,11.0,45,0.00,,,0.00,Wunderground v.1.15,2013-04-12 22:07:00,
2013-04-12 18:12:00,90.7,66.4,29.78,WSW,237,3.0,11.0,45,0.00,,,0.00,Wunderground v.1.15,2013-04-12 22:12:00,
2013-04-12 18:17:00,90.3,67.3,29.79,WSW,237,3.0,12.0,47,0.00,,,0.00,Wunderground v.1.15,2013-04-12 22:17:00,
2013-04-12 18:22:00,90.1,67.2,29.79,South,174,4.0,7.0,47,0.00,,,0.00,Wunderground v.1.15,2013-04-12 22:22:00,
2013-04-12 18:27:00,89.7,67.4,29.79,SSW,195,0.0,9.0,48,0.00,,,0.00,Wunderground v.1.15,2013-04-12 22:27:00,
2013-04-12 18:32:00,89.3,66.4,29.80,WSW,242,1.0,7.0,47,0.00,,,0.00,Wunderground v.1.15,2013-04-12 22:32:00,
2013-04-12 18:37:00,89.0,66.8,29.80,WSW,240,0.0,8.0,48,0.00,,,0.00,Wunderground v.1.15,2013-04-12 22:37:00,
2013-04-12 18:42:00,88.6,66.4,29.80,West,261,5.0,6.0,48,0.00,,,0.00,Wunderground v.1.15,2013-04-12 22:42:00,
2013-04-12 18:47:00,88.4,66.8,29.80,WSW,242,0.0,11.0,49,0.00,,,0.00,Wunderground v.1.15,2013-04-12 22:47:00,
2013-04-12 18:53:00,88.2,67.2,29.80,WSW,255,11.0,11.0,50,0.00,,,0.00,Wunderground v.1.15,2013-04-12 22:53:00,
2013-04-12 18:58:00,88.0,67.0,29.80,WSW,255,0.0,11.0,50,0.00,,,0.00,Wunderground v.1.15,2013-04-12 22:58:00,
2013-04-12 19:03:00,87.6,66.7,29.81,West,262,3.0,11.0,50,0.00,,,0.00,Wunderground v.1.15,2013-04-12 23:03:00,
2013-04-12 19:08:00,87.2,66.9,29.81,WSW,238,7.0,11.0,51,0.00,,,0.00,Wunderground v.1.15,2013-04-12 23:08:00,
2013-04-12 19:13:00,86.7,67.0,29.81,SW,234,9.0,9.0,52,0.00,,,0.00,Wunderground v.1.15,2013-04-12 23:13:00,
2013-04-12 19:18:00,86.3,67.2,29.81,WSW,252,5.0,9.0,53,0.00,,,0.00,Wunderground v.1.15,2013-04-12 23:18:00,
2013-04-12 19:23:00,85.9,66.8,29.81,WSW,248,4.0,9.0,53,0.00,,,0.00,Wunderground v.1.15,2013-04-12 23:23:00,
2013-04-12 19:28:00,85.5,66.4,29.81,West,276,3.0,13.0,53,0.00,,,0.00,Wunderground v.1.15,2013-04-12 23:28:00,
2013-04-12 19:33:00,85.3,66.8,29.81,West,269,0.0,7.0,54,0.00,,,0.00,Wunderground v.1.15,2013-04-12 23:33:00,
2013-04-12 19:38:00,84.9,66.4,29.81,WNW,290,3.0,9.0,54,0.00,,,0.00,Wunderground v.1.15,2013-04-12 23:38:00,
2013-04-12 19:44:00,84.7,66.7,29.81,WSW,240,2.0,6.0,55,0.00,,,0.00,Wunderground v.1.15,2013-04-12 23:44:00,
2013-04-12 19:49:00,84.3,66.4,29.81,West,266,0.0,6.0,55,0.00,,,0.00,Wunderground v.1.15,2013-04-12 23:49:00,
2013-04-12 19:54:00,84.1,66.7,29.81,SW,235,0.0,2.0,56,0.00,,,0.00,Wunderground v.1.15,2013-04-12 23:54:00,
2013-04-12 19:59:00,84.0,67.1,29.81,WSW,244,0.0,4.0,57,0.00,,,0.00,Wunderground v.1.15,2013-04-12 23:59:00,
2013-04-12 20:04:00,83.6,66.8,29.81,WSW,243,0.0,4.0,57,0.00,,,0.00,Wunderground v.1.15,2013-04-13 00:04:00,
2013-04-12 20:09:00,83.4,67.1,29.81,WSW,255,0.0,4.0,58,0.00,,,0.00,Wunderground v.1.15,2013-04-13 00:09:00,
2013-04-12 20:14:00,83.0,67.2,29.82,WSW,255,0.0,0.0,59,0.00,,,0.00,Wunderground v.1.15,2013-04-13 00:14:00,
2013-04-12 20:19:00,82.8,67.0,29.82,WSW,248,0.0,2.0,59,0.00,,,0.00,Wunderground v.1.15,2013-04-13 00:19:00,
2013-04-12 20:25:00,82.4,67.1,29.82,WSW,248,0.0,0.0,60,0.00,,,0.00,Wunderground v.1.15,2013-04-13 00:25:00,
2013-04-12 20:30:00,82.2,66.9,29.83,WSW,254,0.0,0.0,60,0.00,,,0.00,Wunderground v.1.15,2013-04-13 00:30:00,
2013-04-12 20:35:00,82.0,66.7,29.83,WSW,245,0.0,1.0,60,0.00,,,0.00,Wunderground v.1.15,2013-04-13 00:35:00,
2013-04-12 20:40:00,81.8,66.6,29.83,WSW,245,0.0,0.0,60,0.00,,,0.00,Wunderground v.1.15,2013-04-13 00:40:00,
2013-04-12 20:45:00,81.6,65.9,29.84,SW,220,0.0,0.0,59,0.00,,,0.00,Wunderground v.1.15,2013-04-13 00:45:00,
2013-04-12 20:50:00,81.4,65.7,29.84,SW,219,0.0,0.0,59,0.00,,,0.00,Wunderground v.1.15,2013-04-13 00:50:00,
2013-04-12 20:55:00,81.2,65.5,29.84,SW,219,0.0,0.0,59,0.00,,,0.00,Wunderground v.1.15,2013-04-13 00:55:00,
2013-04-12 21:00:00,81.1,65.4,29.84,SW,225,0.0,0.0,59,0.00,,,0.00,Wunderground v.1.15,2013-04-13 01:00:00,
2013-04-12 21:06:00,80.9,65.2,29.84,SW,225,0.0,0.0,59,0.00,,,0.00,Wunderground v.1.15,2013-04-13 01:06:00,
2013-04-12 21:11:00,80.7,65.0,29.84,SW,225,0.0,0.0,59,0.00,,,0.00,Wunderground v.1.15,2013-04-13 01:11:00,
2013-04-12 21:16:00,80.5,65.3,29.85,SW,225,0.0,0.0,60,0.00,,,0.00,Wunderground v.1.15,2013-04-13 01:16:00,
2013-04-12 21:21:00,80.3,65.1,29.85,SW,225,0.0,0.0,60,0.00,,,0.00,Wunderground v.1.15,2013-04-13 01:21:00,
2013-04-12 21:26:00,80.1,65.4,29.85,SW,225,0.0,0.0,61,0.00,,,0.00,Wunderground v.1.15,2013-04-13 01:26:00,
2013-04-12 21:32:00,79.9,66.2,29.86,SW,222,0.0,0.0,63,0.00,,,0.00,Wunderground v.1.15,2013-04-13 01:32:00,
2013-04-12 21:37:00,79.8,67.4,29.86,SW,222,0.0,0.0,66,0.00,,,0.00,Wunderground v.1.15,2013-04-13 01:37:00,
2013-04-12 21:42:00,79.6,67.7,29.86,SW,222,0.0,0.0,67,0.00,,,0.00,Wunderground v.1.15,2013-04-13 01:42:00,
2013-04-12 21:47:00,79.2,67.7,29.86,SW,221,0.0,0.0,68,0.00,,,0.00,Wunderground v.1.15,2013-04-13 01:47:00,
2013-04-12 21:52:00,79.0,68.0,29.86,SW,221,0.0,0.0,69,0.00,,,0.00,Wunderground v.1.15,2013-04-13 01:52:00,
2013-04-12 21:57:00,78.8,68.2,29.86,SW,221,0.0,0.0,70,0.00,,,0.00,Wunderground v.1.15,2013-04-13 01:57:00,
2013-04-12 22:02:00,78.6,68.4,29.86,SW,221,0.0,0.0,71,0.00,,,0.00,Wunderground v.1.15,2013-04-13 02:02:00,
2013-04-12 22:07:00,78.5,69.1,29.86,SW,221,0.0,0.0,73,0.00,,,0.00,Wunderground v.1.15,2013-04-13 02:07:00,
2013-04-12 22:12:00,78.3,69.3,29.86,SW,221,0.0,0.0,74,0.00,,,0.00,Wunderground v.1.15,2013-04-13 02:12:00,
2013-04-12 22:17:00,78.1,69.1,29.86,SW,221,0.0,0.0,74,0.00,,,0.00,Wunderground v.1.15,2013-04-13 02:17:00,
2013-04-12 22:22:00,77.9,69.3,29.86,SW,221,0.0,0.0,75,0.00,,,0.00,Wunderground v.1.15,2013-04-13 02:22:00,
2013-04-12 22:27:00,77.7,69.1,29.86,SW,221,0.0,0.0,75,0.00,,,0.00,Wunderground v.1.15,2013-04-13 02:27:00,
2013-04-12 22:32:00,77.6,69.0,29.87,SW,221,0.0,0.0,75,0.00,,,0.00,Wunderground v.1.15,2013-04-13 02:32:00,
2013-04-12 22:37:00,77.4,69.2,29.87,SW,221,0.0,0.0,76,0.00,,,0.00,Wunderground v.1.15,2013-04-13 02:37:00,
2013-04-12 22:43:00,77.2,69.0,29.87,SW,221,0.0,0.0,76,0.00,,,0.00,Wunderground v.1.15,2013-04-13 02:43:00,
2013-04-12 22:48:00,77.0,68.9,29.87,SW,221,0.0,0.0,76,0.00,,,0.00,Wunderground v.1.15,2013-04-13 02:48:00,
2013-04-12 22:53:00,76.8,69.0,29.87,SW,221,0.0,0.0,77,0.00,,,0.00,Wunderground v.1.15,2013-04-13 02:53:00,
2013-04-12 22:58:00,76.7,69.3,29.87,SW,221,0.0,0.0,78,0.00,,,0.00,Wunderground v.1.15,2013-04-13 02:58:00,
2013-04-12 23:03:00,76.5,69.1,29.87,SW,221,0.0,0.0,78,0.00,,,0.00,Wunderground v.1.15,2013-04-13 03:03:00,
2013-04-12 23:08:00,76.3,68.9,29.87,SW,221,0.0,0.0,78,0.00,,,0.00,Wunderground v.1.15,2013-04-13 03:08:00,
2013-04-12 23:13:00,76.1,69.1,29.87,SW,221,0.0,0.0,79,0.00,,,0.00,Wunderground v.1.15,2013-04-13 03:13:00,
2013-04-12 23:18:00,76.0,69.0,29.88,SW,221,0.0,0.0,79,0.00,,,0.00,Wunderground v.1.15,2013-04-13 03:18:00,
2013-04-12 23:23:00,76.0,69.0,29.88,SW,221,0.0,0.0,79,0.00,,,0.00,Wunderground v.1.15,2013-04-13 03:23:00,
2013-04-12 23:28:00,75.8,68.8,29.88,SW,221,0.0,0.0,79,0.00,,,0.00,Wunderground v.1.15,2013-04-13 03:28:00,
2013-04-12 23:33:00,75.6,69.0,29.89,SW,221,0.0,0.0,80,0.00,,,0.00,Wunderground v.1.15,2013-04-13 03:33:00,
2013-04-12 23:38:00,75.4,68.8,29.89,SW,221,0.0,0.0,80,0.00,,,0.00,Wunderground v.1.15,2013-04-13 03:38:00,
2013-04-12 23:43:00,75.4,69.2,29.89,SW,221,0.0,0.0,81,0.00,,,0.00,Wunderground v.1.15,2013-04-13 03:43:00,
2013-04-12 23:48:00,75.3,69.1,29.89,SW,221,0.0,0.0,81,0.00,,,0.00,Wunderground v.1.15,2013-04-13 03:48:00,
2013-04-12 23:53:00,75.3,69.1,29.89,SW,221,0.0,0.0,81,0.00,,,0.00,Wunderground v.1.15,2013-04-13 03:53:00,
2013-04-12 23:58:00,75.1,68.9,29.89,SW,221,0.0,0.0,81,0.00,,,0.00,Wunderground v.1.15,2013-04-13 03:58:00,